Concord, CA

12:42 PM PST on January 16, 2018 (GMT -0800)
Buchanan

Weather History for KCCR - April, 2013

Change the Weather History Date:

Sunday, April 21, 2013

  Actual Average Record
Temperature  
Mean Temperature 67 °F 60 °F  
Max Temperature 85 °F 71 °F 92 °F (2009)
Min Temperature 48 °F 48 °F 40 °F (2008)
Degree Days  
Heating Degree Days 0    
Month to date heating degree days 101  
Since 1 July heating degree days 2334  
Cooling Degree Days 2    
Month to date cooling degree days 4  
Year to date cooling degree days 4  
Growing Degree Days 16 (Base 50)    
Moisture  
Dew Point 42 °F    
Average Humidity 53    
Maximum Humidity 89    
Minimum Humidity 17    
Precipitation  
Precipitation 0.00 in - 0.13 in (2003)
Month to date precipitation 0.52  
Year to date precipitation 1.92  
Since 1 July precipitation 11.56  
Sea Level Pressure  
Sea Level Pressure 29.95 in    
Wind  
Wind Speed 3 mph (NNW)    
Max Wind Speed 10 mph    
Max Gust Speed 17 mph    
Visibility 10 miles    
Events      
T = Trace of Precipitation, MM = Missing Value Source: NWS Daily Summary

Daily Weather History Graph

Daily Weather History Graph

Search for Another Location

Airport or City:

Trip Planner

Search our weather history database for the weather conditions in past years. The results will help you decide how hot, cold, wet, or windy it might be!

Date:

Astronomy

Apr. 21, 2013 Rise Set
Actual Time 6:24 AM PDT 7:50 PM PDT
Civil Twilight 5:56 AM PDT 8:17 PM PDT
Nautical Twilight 5:23 AM PDT 8:51 PM PDT
Astronomical Twilight 4:48 AM PDT 9:25 PM PDT
Moon 3:44 PM PDT (4/21) 3:45 AM PDT (4/21)
Length of Visible Light 14h 21m
Length of Day
13h 25m
Waxing Gibbous, 81% of the Moon is Illuminated
Apr 21
Waxing Gibbous
Apr 25
Full
May 2
Last Quarter
May 9
New
May 17
First Quarter

Hourly Weather History & Observations

Time (PDT) Temp. Dew Point Humidity Pressure Visibility Wind Dir Wind Speed Gust Speed Precip Events Conditions
12:53 AM 54.0 °F 46.0 °F 75% 29.97 in 10.0 mi Calm Calm - N/A   Clear
1:53 AM 53.1 °F 48.9 °F 86% 29.98 in 9.0 mi North 3.5 mph - N/A   Clear
2:53 AM 52.0 °F 48.0 °F 86% 29.96 in 9.0 mi South 3.5 mph - N/A   Clear
3:53 AM 52.0 °F 48.0 °F 86% 29.96 in 9.0 mi SSE 3.5 mph - N/A   Clear
4:53 AM 51.1 °F 44.1 °F 77% 29.96 in 10.0 mi Calm Calm - N/A   Clear
5:53 AM 48.9 °F 44.1 °F 83% 29.96 in 10.0 mi Calm Calm - N/A   Clear
6:53 AM 48.9 °F 43.0 °F 80% 29.98 in 10.0 mi Calm Calm - N/A   Clear
7:53 AM 54.0 °F 43.0 °F 66% 30.00 in 10.0 mi SSE 3.5 mph - N/A   Clear
8:53 AM 61.0 °F 44.1 °F 54% 30.00 in 10.0 mi Calm Calm - N/A   Clear
9:53 AM 70.0 °F 41.0 °F 35% 30.01 in 10.0 mi Calm Calm - N/A   Clear
10:53 AM 73.9 °F 39.0 °F 28% 30.01 in 10.0 mi Variable 3.5 mph - N/A   Clear
11:53 AM 79.0 °F 37.0 °F 22% 29.99 in 10.0 mi Calm Calm - N/A   Clear
12:53 PM 80.1 °F 34.0 °F 19% 29.97 in 10.0 mi North 5.8 mph - N/A   Clear
1:53 PM 82.0 °F 34.0 °F 18% 29.95 in 10.0 mi Calm Calm - N/A   Clear
2:53 PM 84.0 °F 37.9 °F 19% 29.94 in 10.0 mi NNW 5.8 mph - N/A   Clear
3:53 PM 84.9 °F 36.0 °F 17% 29.92 in 10.0 mi WNW 9.2 mph - N/A   Clear
4:53 PM 84.9 °F 42.1 °F 22% 29.90 in 10.0 mi Variable 5.8 mph - N/A   Clear
5:53 PM 84.0 °F 42.1 °F 23% 29.89 in 10.0 mi NNW 9.2 mph - N/A   Clear
6:53 PM 80.1 °F 44.1 °F 28% 29.88 in 10.0 mi NW 8.1 mph - N/A   Clear
7:53 PM 75.9 °F 39.9 °F 27% 29.88 in 10.0 mi NW 4.6 mph - N/A   Clear
8:53 PM 71.1 °F 45.0 °F 39% 29.90 in 10.0 mi Calm Calm - N/A   Clear
9:53 PM 66.9 °F 44.1 °F 44% 29.92 in 10.0 mi East 3.5 mph - N/A   Clear
10:53 PM 64.9 °F 46.0 °F 50% 29.91 in 10.0 mi SSE 4.6 mph - N/A   Clear
11:53 PM 60.1 °F 45.0 °F 57% 29.91 in 10.0 mi Calm Calm - N/A   Clear